Bedford, Massachusetts, United States (01730)
Lat: 42.49N, Lon: 71.28W
Wx Zone: MAZ005
Local Info
Past Weather Observations for Sunday, October 26, 2014

NOTE: This archive is for the closest National Weather Service station to Bedford. Information may differ from the station used for current weather conditions.

Click here for Long-term Archive

Time Weather Temperature Dewpoint Humidity Pressure Winds Precip Visibility
23:56
Clear
43°F / 6°C 37°F / 3°C 81% 29.71 in
(1006 mb)
SW 5.8 mph
(SW 9 kph)
- 10SM
22:56
Clear
39°F / 4°C 36°F / 2°C 87% 29.68 in
(1005 mb)
SW 4.6 mph
(SW 7 kph)
- 10SM
21:56
Clear
43°F / 6°C 37°F / 3°C 81% 29.68 in
(1005 mb)
SSW 6.9 mph
(SSW 11 kph)
- 10SM
20:56
Clear
45°F / 7°C 36°F / 2°C 71% 29.68 in
(1005 mb)
W 5.8 mph
(W 9 kph)
- 10SM
19:56
Clear
46°F / 8°C 37°F / 3°C 71% 29.68 in
(1005 mb)
W 9.2 mph
(W 15 kph)
- 10SM
18:56
Clear
46°F / 8°C 36°F / 2°C 66% 29.65 in
(1004 mb)
W 6.9 mph
(W 11 kph)
- 10SM
17:56
Clear
48°F / 9°C 36°F / 2°C 62% 29.62 in
(1003 mb)
WNW 10.4 mph
(WNW 17 kph)
- 10SM
16:56
Mostly Cloudy
52°F / 11°C 37°F / 3°C 58% 29.56 in
(1001 mb)
W 9.2 mph
(W 15 kph)
- 10SM
15:56
Clear
54°F / 12°C 37°F / 3°C 54% 29.53 in
(1000 mb)
W 12.7 mph
(W 20 kph)
- 10SM
14:56
Partly Cloudy
55°F / 13°C 37°F / 3°C 51% 29.5 in
(999 mb)
W 17.3 mph
(W 28 kph)
- 10SM
13:56
Mostly Cloudy
55°F / 13°C 36°F / 2°C 47% 29.47 in
(998 mb)
WNW 13.8 mph
(WNW 22 kph)
- 10SM
12:56
Mostly Cloudy
55°F / 13°C 37°F / 3°C 51% 29.47 in
(998 mb)
W 13.8 mph
(W 22 kph)
- 10SM
11:56
Overcast
54°F / 12°C 39°F / 4°C 58% 29.47 in
(998 mb)
NW 16.1 mph
(NW 26 kph)
0.00 in
(0.00 mm)
10SM
10:56
Overcast
54°F / 12°C 37°F / 3°C 54% 29.47 in
(998 mb)
W 19.6 mph
(W 32 kph)
- 10SM
09:56
Partly Cloudy
54°F / 12°C 39°F / 4°C 58% 29.47 in
(998 mb)
W 16.1 mph
(W 26 kph)
- 10SM
08:56
Partly Cloudy
54°F / 12°C 39°F / 4°C 58% 29.47 in
(998 mb)
W 13.8 mph
(W 22 kph)
- 10SM
07:56
Clear
52°F / 11°C 41°F / 5°C 67% 29.47 in
(998 mb)
SSW 9.2 mph
(SSW 15 kph)
- 10SM
06:56
Clear
48°F / 9°C 43°F / 6°C 82% 29.47 in
(998 mb)
SSW 8.1 mph
(SSW 13 kph)
- 10SM
05:56
Clear
50°F / 10°C 43°F / 6°C 76% 29.44 in
(997 mb)
SW 5.8 mph
(SW 9 kph)
- 10SM
04:56
Clear
50°F / 10°C 43°F / 6°C 76% 29.44 in
(997 mb)
SSW 4.6 mph
(SSW 7 kph)
- 10SM
03:56
Clear
48°F / 9°C 43°F / 6°C 82% 29.44 in
(997 mb)
SW 5.8 mph
(SW 9 kph)
- 10SM
02:56
Clear
50°F / 10°C 45°F / 7°C 82% 29.44 in
(997 mb)
SSE 10.4 mph
(SSE 17 kph)
- 10SM
01:56
Clear
52°F / 11°C 45°F / 7°C 77% 29.44 in
(997 mb)
SSW 4.6 mph
(SSW 7 kph)
- 10SM
00:56
Clear
52°F / 11°C 45°F / 7°C 77% 29.47 in
(998 mb)
SW 4.6 mph
(SW 7 kph)
- 10SM
Time Weather Temperature Dewpoint Humidity Pressure Winds Precip Visibility


Weather for websites

WeatherForYou.com, LLC is not responsible for any damages or problems caused by this service. Current weather conditions are obtained from the closest station including government and personal stations which may have varying degrees of accuracy. Weather forecasts are derived from the NOAA NDFD. Like all things, this site belongs to Jesus Christ... He just trusts me to maintain it. If you have any questions or comments email webmaster@weatherforyou.com

Copyright © 2014, WeatherForYou.com LLC. All rights reserved.